Home > Weather > Wolverhampton > Past weeks

Flag for United Kingdom Past Weather in Wolverhampton, England, United Kingdom — Yesterday and Last 2 Weeks

Now
52 °F

Sunny.


Feels Like: 51 °F
Forecast: 55 / 67 °F
Wind: 3 mph from Northwest

Location: Birmingham / Airport

Current Time: Aug 27, 2016 at 7:45:07 AM

Latest Report: Aug 27, 2016 at 7:20 AM


Visibility: 10 mi

Pressure: 30.12 "Hg

Humidity: 94%

Dew Point: 50 °F

Location of WolverhamptonLocation

Past Weather in Wolverhampton — Graph

°F

Wolverhampton Temperature Yesterday

Maximum temperature yesterday: 72 °F (at 4:50 PM)
Minimum temperature yesterday: 54 °F (at 11:50 PM)
Average temperature yesterday: 63 °F

High & Low Weather Summary for the Past Weeks

 TemperatureHumidityPressure
High82 °F (Aug 23, 3:20 PM)100% (Aug 15, 4:50 AM)30.33 "Hg (Aug 15, 4:50 AM)
Low48 °F (Aug 15, 4:50 AM)39% (Aug 15, 5:20 PM)29.56 "Hg (Aug 19, 6:20 PM)
Average64 °F76%30.03 "Hg
* Reported Aug 12 6:20 AM — Aug 27 6:20 AM, Wolverhampton, Weather by CustomWeather, © 2016

Note: Actual official high and low records may vary slightly from our data, if they occured in-between our weather recording intervals... More about our weather records

Advertising

Wolverhampton Weather History for the Previous 24 Hours

Scroll right to see more
 ConditionsComfort  
Time TempWeatherWind HumidityBarometerVisibility
6:20 AM
Sat, Aug 27
52 °FFog.3 mph94%30.09 "HgN/A
5:50 AM52 °FFog.3 mph94%30.09 "HgN/A
5:20 AM52 °FFog.3 mph100%30.09 "HgN/A
4:50 AM52 °FFog.3 mph94%30.12 "HgN/A
4:20 AM52 °FClear.No wind94%30.12 "Hg10 mi
3:50 AM50 °FClear.No wind100%30.12 "Hg10 mi
3:20 AM50 °FClear.No wind94%30.12 "Hg10 mi
2:50 AM52 °FClear.No wind100%30.12 "Hg10 mi
2:20 AM52 °FClear.No wind100%30.12 "Hg10 mi
1:50 AM54 °FClear.2 mph94%30.12 "Hg10 mi
1:20 AM52 °FClear.No wind100%30.15 "Hg10 mi
12:50 AM55 °FClear.No wind88%30.15 "Hg10 mi
12:20 AM55 °FClear.2 mph88%30.15 "Hg10 mi
11:50 PM
Fri, Aug 26
54 °FClear.2 mph94%30.15 "Hg10 mi
11:20 PM57 °FClear.No wind82%30.12 "Hg10 mi
10:50 PM57 °FPassing clouds.No wind88%30.12 "HgN/A
10:20 PM59 °FClear.3 mph82%30.12 "Hg10 mi
9:50 PM63 °FPassing clouds.5 mph68%30.12 "HgN/A
9:20 PM63 °FClear.3 mph68%30.12 "Hg10 mi
8:50 PM63 °FPassing clouds.3 mph68%30.12 "HgN/A
8:20 PM64 °FPassing clouds.3 mph64%30.09 "HgN/A
7:50 PM64 °FPassing clouds.2 mph64%30.09 "HgN/A
7:20 PM66 °FPassing clouds.5 mph56%30.09 "HgN/A
6:50 PM68 °FPassing clouds.7 mph53%30.09 "HgN/A
6:20 PM70 °FPassing clouds.7 mph50%30.09 "HgN/A
5:50 PM70 °FPassing clouds.7 mph50%30.09 "HgN/A
5:20 PM70 °FPassing clouds.7 mph50%30.09 "HgN/A
4:50 PM72 °FScattered clouds.7 mph47%30.09 "HgN/A
4:20 PM70 °FScattered clouds.6 mph50%30.09 "HgN/A
3:50 PM70 °FScattered clouds.9 mph46%30.09 "HgN/A
3:20 PM70 °FScattered clouds.9 mph46%30.09 "HgN/A
2:50 PM70 °FScattered clouds.8 mph46%30.09 "HgN/A
2:20 PM70 °FScattered clouds.8 mph46%30.09 "HgN/A
1:50 PM70 °FScattered clouds.8 mph50%30.09 "HgN/A
1:20 PM68 °FScattered clouds.8 mph53%30.09 "HgN/A
12:50 PM68 °FScattered clouds.8 mph53%30.07 "HgN/A
12:20 PM66 °FScattered clouds.9 mph60%30.07 "HgN/A
11:50 AM66 °FScattered clouds.9 mph64%30.07 "HgN/A
11:20 AM64 °FScattered clouds.8 mph68%30.07 "HgN/A
10:50 AM64 °FPassing clouds.8 mph68%30.07 "HgN/A
10:20 AM63 °FPassing clouds.10 mph73%30.07 "HgN/A
9:50 AM63 °FPassing clouds.8 mph77%30.07 "HgN/A
9:20 AM61 °FPassing clouds.7 mph83%30.07 "HgN/A
8:50 AM61 °FPassing clouds.6 mph77%30.04 "HgN/A
8:20 AM59 °FPassing clouds.5 mph82%30.04 "HgN/A
7:50 AM57 °FPassing clouds.6 mph88%30.04 "HgN/A
7:20 AM57 °FPassing clouds.5 mph94%30.01 "HgN/A
Weather by CustomWeather, © 2016

See weather overviewHow to use our weather pages